Location: Altleiningen
(49.5078°N, 8.0741°E)
Time: 05:03:41
(UTC+00:00)

APEX - Pass Details

Date: 03 March 2021
Orbit: 332 x 1081 km, 69.9° (Epoch: 11 April)

Event Time Altitude Azimuth Distance (km) Brightness Sun altitude
Rises 17:45:17 0° 325° (NW) 2,254 6.9 -5.9°
Reaches altitude 10° 17:47:25 10° 319° (NW) 1,338 5.9 -6.2°
Maximum altitude 17:50:09 45° 245° (WSW) 479 3.6 -6.7°
Drops below altitude 10° 17:52:45 10° 170° (S) 1,265 5.1 -7.1°
Sets 17:54:43 0° 164° (SSE) 2,109 6.2 -7.4°
